Flag for U.S.A. Weather past 2 weeks in Grand Junction, Colorado, U.S.A.

Now
34 °F

Overcast.


Feels Like: 34 °F
Forecast: 30 / 46 °F
Wind: No wind

Location: Walker Field

Current Time: Dec 21, 2014 at 8:50:33 PM

Latest Report: Dec 21, 2014 at 7:53 PM


Visibility: 7 mi

Pressure: 29.93 "Hg

Humidity: 97%

Dew point: 33 °F

Location of Grand JunctionLocation

Historic Weather in Grand Junction — Graph

°F

Grand Junction temperature yesterday

Maximum temperature yesterday: 38 °F (at 12:53 PM)
Minimum temperature yesterday: 27 °F (at 3:53 AM)
Average temperature yesterday: 32 °F

Past Weeks' High & Low Weather Summary

 TemperatureHumidityPressure
High52 °F (Dec 7, 1:53 PM)100% (Dec 13, 2:53 PM)30.46 "Hg (Dec 13, 2:53 PM)
Low19 °F (Dec 11, 7:53 AM)28% (Dec 9, 3:53 PM)29.85 "Hg (Dec 13, 5:53 AM)
Average34 °F77%30.18 "Hg
* Reported Dec 6 7:53 PM — Dec 21 7:53 PM, Grand Junction, Weather by CustomWeather, © 2014

Note: Actual official high and low records may vary slightly from our data, if they occured in-between our weather recording intervals... More about our weather records

Advertising

Grand Junction weather history for previous 24 hours

 ConditionsComfort  
Time TempWeatherWind HumidityBarometerVisibility
7:53 PM
Dec 21
34 °FOvercast.No wind97%29.93 "Hg7 mi
6:53 PM34 °FOvercast.No wind97%29.95 "Hg7 mi
5:53 PM34 °FOvercast.No wind92%29.95 "Hg9 mi
4:53 PM34 °FOvercast.3 mph92%29.96 "Hg7 mi
3:53 PM33 °FOvercast.No wind92%29.96 "Hg10 mi
2:53 PM34 °FOvercast.No wind92%29.96 "Hg10 mi
1:53 PM33 °FOvercast.No wind96%29.98 "Hg10 mi
12:53 PM33 °FOvercast.5 mph96%29.99 "Hg10 mi
11:53 AM33 °FLight snow. Fog.3 mph96%30.03 "Hg3 mi
10:53 AM33 °FLight snow. Fog.No wind96%30.06 "Hg4 mi
9:53 AM32 °FLight snow. Fog.No wind100%30.06 "Hg1 mi
9:00 AM31 °FLight snow. Ice fog.3 mph100%30.06 "Hg2 mi
7:53 AM31 °FLight snow. Ice fog.3 mph100%30.05 "Hg1 mi
6:53 AM32 °FMostly cloudy.5 mph96%30.08 "Hg7 mi
5:53 AM32 °FMostly cloudy.No wind92%30.06 "Hg9 mi
4:53 AM32 °FMostly cloudy.3 mph92%30.07 "Hg8 mi
3:53 AM31 °FOvercast.3 mph96%30.07 "Hg8 mi
2:53 AM32 °FMostly cloudy.5 mph96%30.10 "Hg8 mi
1:53 AM33 °FOvercast.3 mph92%30.13 "Hg9 mi
12:53 AM33 °FOvercast.No wind92%30.13 "Hg9 mi
11:53 PM
Dec 20
33 °FOvercast.No wind92%30.14 "Hg9 mi
10:53 PM33 °FOvercast.No wind92%30.14 "Hg10 mi
9:53 PM33 °FMostly cloudy.No wind92%30.17 "Hg10 mi
8:53 PM32 °FOvercast.No wind96%30.16 "Hg10 mi
Weather by CustomWeather, © 2014

See weather overviewHow to use our weather pages